Weather History for Dumas, TX

Change the Weather History Date:

Monday, December 31, 2012

  Actual Average (KBGD) Record (KBGD)
Temperature  
Mean Temperature 24 °F 37 °F  
Max Temperature 32 °F 49 °F 74 °F (2011)
Min Temperature 14 °F 25 °F 2 °F (1976)
Degree Days  
Heating Degree Days 40 28  
Month to date heating degree days 822  
Since 1 July heating degree days 1537  
Cooling Degree Days 0 0  
Month to date cooling degree days 0  
Year to date cooling degree days 1839  
Moisture  
Dew Point 24 °F    
Average Humidity 89    
Maximum Humidity 100    
Minimum Humidity 74    
Precipitation  
Precipitation 0.11 in 0.04 in 0.33 in (1991)
Month to date precipitation 0.77  
Year to date precipitation 21.72  
Snow  
Snow 0.00 in - - ()
Month to date snowfall  
Since 1 July snowfall  
Snow Depth -    
Sea Level Pressure  
Sea Level Pressure 29.96 in    
Wind  
Wind Speed 12 mph (NNW)    
Max Wind Speed 21 mph    
Max Gust Speed 24 mph    
Visibility 8 miles    
Events Rain , Snow    
T = Trace of Precipitation, MM = Missing Value Source: NWS Daily Summary

Daily Weather History Graph

Daily Weather History Graph

Search for Another Location

Airport:

Trip Planner

Search our weather history database for the weather conditions in past years. The results will help you decide how hot, cold, wet, or windy it might be!

Date:

Astronomy

Dec. 31, 2012 Rise Set
Actual Time 7:58 AM CST 5:44 PM CST
Civil Twilight 7:29 AM CST 6:13 PM CST
Nautical Twilight 6:57 AM CST 6:45 PM CST
Astronomical Twilight 6:26 AM CST 7:16 PM CST
Moon 9:10 PM CST (12/31) 9:47 AM CST (12/31)
Length of Visible Light 10h 43m
Length of Day
9h 46m
Waning Gibbous, 90% of the Moon is Illuminated
Dec 31
Waning Gibbous
Jan 4
Last Quarter
Jan 11
New
Jan 18
First Quarter
Jan 26
Full

Hourly Weather History & Observations

Time (CST) Temp. Windchill Dew Point Humidity Pressure Visibility Wind Dir Wind Speed Gust Speed Precip Events Conditions
12:15 AM 32.0 °F 20.8 °F 30.2 °F 93% 29.95 in 10.0 mi SSW 17.3 mph - N/A   Scattered Clouds
12:35 AM 32.0 °F 21.2 °F 30.2 °F 93% 29.95 in 7.0 mi SSW 16.1 mph 24.2 mph N/A   Drizzle
12:55 AM 32.0 °F 21.6 °F 30.2 °F 93% 29.93 in 7.0 mi SSW 15.0 mph - N/A Rain Rain
1:15 AM 32.0 °F 23.0 °F 32.0 °F 100% 29.92 in 5.0 mi SSW 11.5 mph 20.7 mph N/A Rain Rain
1:35 AM 32.0 °F 23.6 °F 32.0 °F 100% 29.92 in 7.0 mi SSW 10.4 mph - 0.01 in Rain Rain
1:55 AM 32.0 °F 24.2 °F 32.0 °F 100% 29.90 in 7.0 mi South 9.2 mph - 0.01 in Rain Rain
2:15 AM 32.0 °F 23.0 °F 32.0 °F 100% 29.91 in 10.0 mi SSW 11.5 mph - 0.01 in   Light Drizzle
2:35 AM 32.0 °F 24.2 °F 32.0 °F 100% 29.91 in 5.0 mi SSW 9.2 mph - 0.01 in Rain Rain
2:55 AM 32.0 °F 25.6 °F 32.0 °F 100% 29.91 in 5.0 mi SSW 6.9 mph - 0.01 in Rain Light Rain
3:15 AM 32.0 °F 25.6 °F 32.0 °F 100% 29.92 in 4.0 mi SSW 6.9 mph - 0.01 in Rain Light Rain
3:35 AM 32.0 °F - 32.0 °F 100% 29.91 in 4.0 mi Calm Calm - 0.02 in Rain Light Rain
3:55 AM 32.0 °F - 32.0 °F 100% 29.92 in 3.0 mi Calm Calm - 0.04 in Snow Light Snow
4:15 AM 32.0 °F 27.5 °F 32.0 °F 100% 29.91 in 2.5 mi NW 4.6 mph - 0.02 in Snow Light Snow
4:35 AM 32.0 °F - 32.0 °F 100% 29.91 in 1.8 mi Calm Calm - 0.04 in Snow Light Snow
4:55 AM 32.0 °F - 32.0 °F 100% 29.89 in 2.0 mi Calm Calm - 0.05 in Snow Light Snow
5:15 AM 32.0 °F - 32.0 °F 100% 29.89 in 2.0 mi Calm Calm - N/A Snow Light Snow
5:35 AM 32.0 °F 28.7 °F 32.0 °F 100% 29.88 in 2.0 mi NNW 3.5 mph - N/A   Light Drizzle
6:15 AM 32.0 °F 21.6 °F 30.2 °F 93% 29.87 in 2.5 mi North 15.0 mph - N/A Rain Light Rain
6:35 AM 30.2 °F 20.2 °F 30.2 °F 100% 29.88 in 3.0 mi NNW 12.7 mph - N/A   Overcast
6:55 AM 28.4 °F 17.5 °F 26.6 °F 93% 29.89 in 5.0 mi NNW 13.8 mph - N/A   Overcast
7:35 AM 26.6 °F 16.2 °F 24.8 °F 93% 29.90 in 2.5 mi NNW 11.5 mph - N/A   Overcast
7:55 AM 26.6 °F 16.2 °F 23.0 °F 86% 29.91 in 2.0 mi NNW 11.5 mph - N/A   Overcast
8:15 AM 26.6 °F 15.7 °F 23.0 °F 86% 29.91 in 1.8 mi NNW 12.7 mph - N/A   Overcast
8:35 AM 26.6 °F 15.2 °F 23.0 °F 86% 29.91 in 4.0 mi NNW 13.8 mph - N/A   Overcast
8:55 AM 26.6 °F 15.7 °F 23.0 °F 86% 29.92 in 10.0 mi NNW 12.7 mph - N/A   Overcast
9:15 AM 26.6 °F 14.7 °F 23.0 °F 86% 29.93 in 10.0 mi NNW 15.0 mph - N/A   Overcast
9:35 AM 26.6 °F 14.3 °F 23.0 °F 86% 29.94 in 7.0 mi NNW 16.1 mph - N/A   Overcast
9:55 AM 26.6 °F 15.2 °F 23.0 °F 86% 29.95 in 4.0 mi NNW 13.8 mph - N/A   Overcast
10:15 AM 26.6 °F 13.8 °F 23.0 °F 86% 29.95 in 7.0 mi NNW 17.3 mph - N/A   Overcast
10:35 AM 26.6 °F 14.3 °F 23.0 °F 86% 29.95 in 5.0 mi NNW 16.1 mph - N/A   Overcast
10:55 AM 26.6 °F 14.3 °F 23.0 °F 86% 29.96 in 10.0 mi NNW 16.1 mph - N/A   Overcast
11:15 AM 26.6 °F 14.3 °F 23.0 °F 86% 29.97 in 10.0 mi NNW 16.1 mph - N/A   Overcast
11:35 AM 26.6 °F 13.4 °F 23.0 °F 86% 29.96 in 10.0 mi NNW 18.4 mph - N/A   Overcast
11:55 AM 26.6 °F 13.4 °F 23.0 °F 86% 29.95 in 10.0 mi NNW 18.4 mph - N/A   Overcast
12:15 PM 26.6 °F 13.8 °F 23.0 °F 86% 29.95 in 10.0 mi NNW 17.3 mph - N/A   Overcast
12:35 PM 26.6 °F 13.8 °F 21.2 °F 80% 29.93 in 10.0 mi NNW 17.3 mph - N/A   Overcast
12:55 PM 26.6 °F 13.1 °F 21.2 °F 80% 29.93 in 10.0 mi NNW 19.6 mph - N/A   Overcast
1:15 PM 26.6 °F 12.7 °F 23.0 °F 86% 29.92 in 10.0 mi NNW 20.7 mph 24.2 mph N/A   Mostly Cloudy
1:35 PM 26.6 °F 12.7 °F 21.2 °F 80% 29.92 in 10.0 mi NNW 20.7 mph - N/A   Overcast
1:55 PM 28.4 °F 15.4 °F 23.0 °F 80% 29.91 in 10.0 mi North 19.6 mph - N/A   Overcast
2:15 PM 26.6 °F 13.8 °F 21.2 °F 80% 29.93 in 10.0 mi NNW 17.3 mph - N/A   Overcast
2:35 PM 26.6 °F 13.4 °F 21.2 °F 80% 29.92 in 10.0 mi NNW 18.4 mph - N/A   Overcast
2:55 PM 26.6 °F 15.2 °F 23.0 °F 86% 29.93 in 10.0 mi North 13.8 mph 20.7 mph N/A   Overcast
3:15 PM 26.6 °F 13.4 °F 21.2 °F 80% 29.93 in 10.0 mi North 18.4 mph - N/A   Overcast
3:35 PM 26.6 °F 13.8 °F 21.2 °F 80% 29.95 in 10.0 mi North 17.3 mph - N/A   Overcast
3:55 PM 26.6 °F 15.2 °F 21.2 °F 80% 29.95 in 10.0 mi North 13.8 mph - N/A   Overcast
4:15 PM 26.6 °F 15.7 °F 21.2 °F 80% 29.95 in 10.0 mi North 12.7 mph - N/A   Overcast
4:35 PM 26.6 °F 15.7 °F 21.2 °F 80% 29.97 in 10.0 mi North 12.7 mph - N/A   Overcast
4:55 PM 26.6 °F 14.3 °F 19.4 °F 74% 29.97 in 10.0 mi North 16.1 mph 20.7 mph N/A   Overcast
5:15 PM 24.8 °F 11.5 °F 19.4 °F 80% 29.98 in 10.0 mi North 17.3 mph 23.0 mph N/A   Overcast
5:35 PM 23.0 °F 10.6 °F 19.4 °F 86% 29.98 in 10.0 mi North 13.8 mph 19.6 mph N/A   Mostly Cloudy
5:55 PM 23.0 °F 12.4 °F 19.4 °F 86% 30.00 in 10.0 mi North 10.4 mph - N/A   Mostly Cloudy
6:15 PM 21.2 °F 10.9 °F 19.4 °F 93% 30.01 in 10.0 mi North 9.2 mph - N/A   Mostly Cloudy
6:35 PM 23.0 °F 12.4 °F 19.4 °F 86% 30.01 in 10.0 mi North 10.4 mph - N/A   Overcast
6:55 PM 23.0 °F 12.4 °F 19.4 °F 86% 30.02 in 10.0 mi North 10.4 mph - N/A   Overcast
7:15 PM 21.2 °F 12.6 °F 17.6 °F 86% 30.03 in 10.0 mi North 6.9 mph - N/A   Mostly Cloudy
7:35 PM 21.2 °F 13.6 °F 17.6 °F 86% 30.04 in 10.0 mi North 5.8 mph - N/A   Scattered Clouds
7:55 PM 19.4 °F 10.4 °F 17.6 °F 93% 30.04 in 10.0 mi North 6.9 mph - N/A   Clear
8:35 PM 17.6 °F 9.3 °F 15.8 °F 93% 30.05 in 10.0 mi North 5.8 mph - N/A   Clear
8:55 PM 17.6 °F 9.3 °F 14.0 °F 86% 30.06 in 10.0 mi North 5.8 mph - N/A   Clear
9:35 PM 17.6 °F 6.4 °F 15.8 °F 93% 30.07 in 10.0 mi North 9.2 mph - N/A   Clear
10:15 PM 17.6 °F 7.3 °F 14.0 °F 86% 30.06 in 10.0 mi North 8.1 mph - N/A   Scattered Clouds
10:35 PM 19.4 °F 8.6 °F 17.6 °F 93% 30.07 in 10.0 mi North 9.2 mph - N/A   Mostly Cloudy
10:55 PM 17.6 °F 6.4 °F 15.8 °F 93% 30.07 in 10.0 mi North 9.2 mph - N/A   Scattered Clouds
11:15 PM 17.6 °F 6.4 °F 14.0 °F 86% 30.07 in 10.0 mi North 9.2 mph - N/A   Clear
11:35 PM 17.6 °F 7.3 °F 14.0 °F 86% 30.08 in 10.0 mi NNW 8.1 mph - N/A   Clear
11:55 PM 14.0 °F 3.9 °F 12.2 °F 93% 30.08 in 10.0 mi North 6.9 mph - N/A   Clear